When you browse on this site, cookies collect data to enhance your experience and personalize the content and advertising you see.
Visit our Privacy Policy to learn more. By continuing to use the site, you agree to this use of cookies and data.
  • In Austria
  • List of Countries
  • For 7 days
  • Water Temperature
  • Weather Map
  • News
  • Weather Widgets
  • user-avatar
    Login

    Hourly Weather Elbasan

    Today, 12 December, Thursday

    Time Temperature Precipitation Wind Pressure Humidity
    00:00 +7°C° 0 mm 2 mps 729 mmHg 83%
    01:00 +6°C° 0 mm 2 mps 728 mmHg 83%
    02:00 +6°C° 0 mm 2 mps 728 mmHg 83%
    03:00 +6°C° 0 mm 2 mps 728 mmHg 83%
    04:00 +6°C° 0 mm 2 mps 727 mmHg 83%
    05:00 +6°C° 0 mm 2 mps 727 mmHg 83%
    06:00 +6°C° 0 mm 2 mps 727 mmHg 83%
    07:00 +6°C° 0 mm 2 mps 728 mmHg 83%
    08:00 +7°C° 0 mm 2 mps 728 mmHg 78%
    09:00 +10°C° 0 mm 1 mps 728 mmHg 74%
    10:00 +11°C° 0 mm 1 mps 728 mmHg 70%
    11:00 +12°C° 0 mm 1 mps 727 mmHg 68%
    12:00 +12°C° 0 mm 1 mps 727 mmHg 66%
    13:00 +13°C° 0 mm 1 mps 727 mmHg 64%
    14:00 +12°C° 0.2 mm 1 mps 726 mmHg 72%
    15:00 +11°C° 0.2 mm 1 mps 726 mmHg 79%
    16:00 +10°C° 0.2 mm 1 mps 726 mmHg 86%
    17:00 +10°C° 0.4 mm 1 mps 726 mmHg 87%
    18:00 +10°C° 0.4 mm 1 mps 726 mmHg 88%
    19:00 +9°C° 0.4 mm 1 mps 726 mmHg 89%
    20:00 +9°C° 0.1 mm 1 mps 726 mmHg 88%
    21:00 +9°C° 0.1 mm 1 mps 726 mmHg 87%
    22:00 +9°C° 0.1 mm 1 mps 726 mmHg 86%
    23:00 +9°C° 0.2 mm 1 mps 726 mmHg 86%

    Tomorrow, 13 December, Friday

    Time Temperature Precipitation Wind Pressure Humidity
    00:00 +9°C° 0.2 mm 1 mps 725 mmHg 87%
    01:00 +9°C° 0.2 mm 1 mps 725 mmHg 88%
    02:00 +8°C° 1.3 mm 1 mps 725 mmHg 90%
    03:00 +7°C° 1.3 mm 2 mps 724 mmHg 92%
    04:00 +7°C° 1.3 mm 2 mps 724 mmHg 94%
    05:00 +7°C° 0.5 mm 2 mps 724 mmHg 93%
    06:00 +7°C° 0.5 mm 2 mps 724 mmHg 92%
    07:00 +7°C° 0.5 mm 2 mps 725 mmHg 92%
    08:00 +8°C° 0.2 mm 2 mps 725 mmHg 88%
    09:00 +8°C° 0.2 mm 2 mps 724 mmHg 85%
    10:00 +9°C° 0.2 mm 2 mps 724 mmHg 82%
    11:00 +10°C° 0.4 mm 3 mps 724 mmHg 79%
    12:00 +10°C° 0.4 mm 3 mps 724 mmHg 76%
    13:00 +11°C° 0.4 mm 3 mps 723 mmHg 73%
    14:00 +10°C° 0.3 mm 3 mps 723 mmHg 76%
    15:00 +9°C° 0.3 mm 2 mps 722 mmHg 79%
    16:00 +10°C° 0.3 mm 1 mps 722 mmHg 82%
    17:00 +9°C° 0.1 mm 2 mps 722 mmHg 83%
    18:00 +9°C° 0.1 mm 2 mps 721 mmHg 83%
    19:00 +9°C° 0.1 mm 3 mps 721 mmHg 83%
    20:00 +8°C° 0.1 mm 3 mps 720 mmHg 84%
    21:00 +8°C° 0.1 mm 3 mps 719 mmHg 84%
    22:00 +7°C° 0.1 mm 4 mps 718 mmHg 85%
    23:00 +7°C° 0.8 mm 4 mps 717 mmHg 85%

    Day after tomorrow, 14 December, Saturday

    Time Temperature Precipitation Wind Pressure Humidity
    00:00 +7°C° 0.8 mm 4 mps 716 mmHg 86%
    01:00 +8°C° 0.8 mm 4 mps 716 mmHg 87%
    02:00 +7°C° 4 mm 4 mps 715 mmHg 88%
    03:00 +7°C° 4 mm 3 mps 715 mmHg 90%
    04:00 +7°C° 4 mm 3 mps 715 mmHg 91%
    05:00 +7°C° 1.2 mm 3 mps 716 mmHg 91%
    06:00 +7°C° 1.2 mm 3 mps 716 mmHg 91%
    07:00 +7°C° 1.2 mm 2 mps 717 mmHg 91%
    08:00 +8°C° 0.2 mm 2 mps 717 mmHg 88%
    09:00 +9°C° 0.2 mm 2 mps 718 mmHg 85%
    10:00 +9°C° 0.2 mm 2 mps 719 mmHg 82%
    11:00 +10°C° 0 mm 2 mps 719 mmHg 80%
    12:00 +12°C° 0 mm 2 mps 720 mmHg 78%
    13:00 +13°C° 0 mm 2 mps 721 mmHg 76%
    14:00 +12°C° 0 mm 2 mps 722 mmHg 78%
    15:00 +10°C° 0 mm 2 mps 723 mmHg 81%
    16:00 +10°C° 0 mm 2 mps 724 mmHg 84%
    17:00 +10°C° 0 mm 2 mps 725 mmHg 84%
    18:00 +9°C° 0 mm 2 mps 726 mmHg 84%
    19:00 +9°C° 0 mm 2 mps 727 mmHg 84%
    20:00 +9°C° 0 mm 2 mps 728 mmHg 84%
    21:00 +9°C° 0 mm 2 mps 729 mmHg 83%
    22:00 +9°C° 0 mm 2 mps 730 mmHg 83%
    23:00 +9°C° 0 mm 2 mps 731 mmHg 84%

    15 December, Sunday

    Time Temperature Precipitation Wind Pressure Humidity
    00:00 +8°C° 0 mm 2 mps 732 mmHg 84%
    01:00 +8°C° 0 mm 2 mps 732 mmHg 84%
    02:00 +8°C° 0 mm 2 mps 733 mmHg 84%
    03:00 +8°C° 0 mm 2 mps 733 mmHg 83%
    04:00 +8°C° 0 mm 2 mps 734 mmHg 83%
    05:00 +8°C° 0 mm 2 mps 734 mmHg 83%
    06:00 +8°C° 0 mm 2 mps 735 mmHg 82%
    07:00 +8°C° 0 mm 2 mps 735 mmHg 82%
    08:00 +9°C° 0 mm 2 mps 736 mmHg 80%
    09:00 +12°C° 0 mm 2 mps 736 mmHg 78%
    10:00 +13°C° 0 mm 2 mps 737 mmHg 76%
    11:00 +14°C° 0 mm 2 mps 737 mmHg 73%
    12:00 +15°C° 0 mm 1 mps 737 mmHg 71%
    13:00 +16°C° 0 mm 1 mps 737 mmHg 68%
    14:00 +15°C° 0 mm 1 mps 737 mmHg 72%
    15:00 +14°C° 0 mm 1 mps 737 mmHg 77%
    16:00 +13°C° 0 mm 1 mps 738 mmHg 81%
    17:00 +13°C° 0 mm 1 mps 738 mmHg 80%
    18:00 +12°C° 0 mm 1 mps 739 mmHg 80%
    19:00 +12°C° 0 mm 1 mps 739 mmHg 79%
    20:00 +12°C° 0 mm 1 mps 739 mmHg 79%
    21:00 +12°C° 0 mm 1 mps 740 mmHg 78%
    22:00 +12°C° 0 mm 1 mps 740 mmHg 77%
    23:00 +11°C° 0 mm 1 mps 740 mmHg 77%

    16 December, Monday

    Time Temperature Precipitation Wind Pressure Humidity
    00:00 +11°C° 0 mm 1 mps 740 mmHg 77%
    01:00 +11°C° 0 mm 1 mps 740 mmHg 77%
    02:00 +11°C° 0 mm 1 mps 740 mmHg 78%
    03:00 +11°C° 0 mm 1 mps 740 mmHg 79%
    04:00 +11°C° 0 mm 1 mps 741 mmHg 80%
    05:00 +10°C° 0 mm 1 mps 741 mmHg 80%
    06:00 +10°C° 0 mm 1 mps 741 mmHg 80%
    07:00 +10°C° 0 mm 1 mps 741 mmHg 81%
    08:00 +12°C° 0 mm 1 mps 742 mmHg 77%
    09:00 +12°C° 0 mm 0 mps 742 mmHg 73%
    10:00 +14°C° 0 mm 0 mps 742 mmHg 69%
    11:00 +15°C° 0 mm 0 mps 742 mmHg 68%
    12:00 +16°C° 0 mm 1 mps 741 mmHg 66%
    13:00 +18°C° 0 mm 1 mps 741 mmHg 65%
    14:00 +15°C° 0 mm 1 mps 741 mmHg 71%
    15:00 +14°C° 0 mm 1 mps 741 mmHg 77%
    16:00 +12°C° 0 mm 0 mps 741 mmHg 82%
    17:00 +12°C° 0 mm 0 mps 741 mmHg 83%
    18:00 +12°C° 0 mm 1 mps 741 mmHg 83%
    19:00 +12°C° 0 mm 1 mps 741 mmHg 84%
    20:00 +12°C° 0 mm 1 mps 741 mmHg 83%
    21:00 +11°C° 0 mm 1 mps 741 mmHg 83%
    22:00 +11°C° 0 mm 1 mps 741 mmHg 82%
    23:00 +11°C° 0 mm 1 mps 741 mmHg 82%

    17 December, Tuesday

    Time Temperature Precipitation Wind Pressure Humidity
    00:00 +11°C° 0 mm 1 mps 741 mmHg 81%
    01:00 +11°C° 0 mm 1 mps 741 mmHg 81%
    02:00 +11°C° 0 mm 1 mps 741 mmHg 80%
    03:00 +10°C° 0 mm 1 mps 741 mmHg 79%
    04:00 +10°C° 0 mm 1 mps 741 mmHg 78%
    05:00 +10°C° 0 mm 1 mps 741 mmHg 77%
    06:00 +10°C° 0 mm 1 mps 741 mmHg 75%
    07:00 +10°C° 0 mm 1 mps 741 mmHg 73%
    08:00 +12°C° 0 mm 1 mps 741 mmHg 68%
    09:00 +12°C° 0 mm 0 mps 741 mmHg 64%
    10:00 +14°C° 0 mm 0 mps 742 mmHg 59%
    11:00 +15°C° 0 mm 0 mps 741 mmHg 58%
    12:00 +15°C° 0 mm 0 mps 741 mmHg 58%
    13:00 +18°C° 0 mm 1 mps 740 mmHg 57%
    14:00 +15°C° 0 mm 1 mps 740 mmHg 64%
    15:00 +13°C° 0 mm 0 mps 740 mmHg 70%
    16:00 +12°C° 0 mm 0 mps 740 mmHg 77%
    17:00 +11°C° 0 mm 0 mps 740 mmHg 77%
    18:00 +12°C° 0 mm 1 mps 740 mmHg 77%
    19:00 +11°C° 0 mm 1 mps 741 mmHg 77%
    20:00 +11°C° 0 mm 1 mps 741 mmHg 75%
    21:00 +10°C° 0 mm 0 mps 741 mmHg 72%
    22:00 +10°C° 0 mm 0 mps 741 mmHg 70%
    23:00 +10°C° 0 mm 0 mps 741 mmHg 71%
    Show more